User: anonymous   Login
Location: Unspecified
(51.4874°N, 0.0000°E)
Time: 10:14:19
(UTC+00:00)
Language:

MISRSAT - Orbit

View from above orbital plane
View from above orbital plane
View from above satellite
View from above satellite

Ground track
Ground track

The orbit is defined by the following mean orbital elements,

1 58497U          26088.17922042 +.00000000 +00000-0 +23769-3 0 00007
2 58497  97.9286 170.7405 0012001  52.9767 307.2543 14.83038573    06
Epoch (UTC): 29 March 2026 04:18:04
Eccentricity: 0.0012001
inclination: 97.9286°
perigee height: 611 km
apogee height: 628 km
right ascension of ascending node: 170.7405°
argument of perigee: 52.9767°
revolutions per day: 14.83038573
mean anomaly at epoch: 307.2543°

The dashed part of the orbit path shows where the satellite is in the earth's shadow,  

DLR